[[{"header":{"parameterUnit":"m.s-1","parameterCategory":1,"la1":30.2991,"la2":30.254,"lo1":-89.0895,"lo2":-89.0444,"dy":0.0017,"dx":0.0017,"nx":28,"ny":28,"refTime":"2025-04-04T09:00:00:Z","depth":0,"parameterNumber":2,"parameterNumberName":"U-component_of_WINDS"},"data":[0,0,0,0,0,0,0,0,0,0,0,0,0,0,0,0,0,0,0,0,0,0,0,0,0,0,0,0,0,0,0,0,0,0,0,0,0,0,0,0,0,0,0,0,0,0,0,0,0,0,0,0,0,0,0,0,0,0,-5.1831,-5.1833,0,-5.2045,-5.2048,-5.205,-5.2103,-5.2102,-5.2101,-5.2099,-5.2316,-5.2323,-5.233,0,0,0,0,0,0,0,0,0,0,0,0,0,-5.1465,-5.1471,-5.1831,-5.1833,-5.1836,-5.2045,-5.2048,-5.2051,-5.2104,-5.2102,-5.21,-5.2099,-5.2314,-5.2322,-5.2331,0,0,0,0,0,0,0,0,0,0,0,0,0,-5.1646,-5.1473,-5.183,-5.1888,-5.1895,-5.2044,-5.2048,-5.2052,-5.2104,-5.2102,-5.21,-5.2098,-5.2311,-5.2322,-5.2332,-5.2439,0,0,-5.2364,-5.2369,0,0,0,0,0,0,0,0,-5.1635,-5.1659,-5.1876,-5.1884,-5.1892,-5.2046,-5.1999,-5.2181,-5.2104,-5.2024,-5.2099,-5.2097,-5.2228,-5.2245,-5.229,-5.2449,-5.2458,-5.2365,-5.2372,-5.2376,-5.2379,0,0,0,0,0,0,0,-5.1623,-5.165,-5.1916,-5.1879,-5.1889,-5.1902,-5.1925,-5.2034,-5.2135,-5.2031,-5.2036,-5.206,-5.2232,-5.2279,-5.2295,-5.2462,-5.2365,-5.2374,-5.2381,-5.2385,-5.272,-5.2722,0,0,0,0,0,0,-5.1601,-5.1639,-5.1909,-5.1922,-5.1756,-5.191,-5.1937,-5.1998,-5.2134,-5.2153,-5.2062,-5.2062,-5.2262,-5.2283,-5.2303,-5.2437,-5.2376,-5.2386,-5.2392,-5.2717,-5.272,-5.2723,0,0,0,0,0,0,-5.1593,-5.1624,-5.19,-5.1782,-5.1818,-5.1919,-5.1988,-5.2004,-5.2052,-5.2157,-5.2175,-5.2092,-5.2262,-5.2288,-5.2405,-5.2445,-5.2391,-5.2401,-5.2714,-5.2718,-5.2722,-5.2704,0,0,0,0,0,0,-5.1582,-5.1621,-5.1663,-5.1783,-5.1824,-5.1999,-5.199,-5.2009,-5.207,-5.2072,-5.219,-5.2208,-5.2262,-5.2389,-5.2416,-5.2458,-5.2409,-5.2711,-5.2716,-5.272,-5.2702,-5.2707,-5.2712,0,0,0,0,0,-5.1569,-5.1649,-5.1665,-5.1697,-5.1879,-5.2001,-5.2025,-5.2086,-5.2073,-5.2116,-5.2184,-5.2204,-5.2437,-5.24,-5.2431,-5.2478,-5.2709,-5.2714,-5.272,-5.27,-5.2706,-5.2712,0,0,0,0,0,0,-5.153,-5.1665,-5.1684,-5.1806,-5.1892,-5.2009,-5.2065,-5.2091,-5.2181,-5.2179,-5.2251,-5.2277,-5.2389,-5.2445,-5.2402,-5.2588,-5.2573,-5.2585,-5.2547,-5.2554,-5.2559,-5.2541,-5.2418,0,0,0,0,0,-5.1536,-5.1624,-5.1738,-5.1834,-5.1876,-5.1963,-5.2019,-5.2059,-5.215,-5.2186,-5.2263,-5.2349,-5.2442,-5.2502,-5.2593,-5.2711,-5.2737,-5.2759,-5.2764,-5.2767,-5.2776,-5.2842,-5.2852,-5.2742,-5.2741,-5.2741,0,0,-5.1548,-5.1633,-5.1684,-5.1828,-5.1899,-5.1989,-5.1993,-5.2087,-5.2154,-5.22,-5.2315,-5.2374,-5.2476,-5.2594,-5.265,-5.2645,-5.2813,-5.2774,-5.2776,-5.2783,-5.2849,-5.2859,-5.2868,-5.2745,-5.2745,-5.2744,0,0,-5.1616,-5.169,-5.1778,-5.1849,-5.1957,-5.2015,-5.2036,-5.2151,-5.2192,-5.2309,-5.2346,-5.2426,-5.2584,-5.2655,-5.2712,-5.2809,-5.283,-5.2837,-5.2861,-5.2925,-5.2934,-5.2942,-5.2975,-5.2986,-5.2846,-5.2846,-5.2846,0,-5.1617,-5.1753,-5.1819,-5.1912,-5.1974,-5.2022,-5.2111,-5.2177,-5.2309,-5.235,-5.2343,-5.2544,-5.2616,-5.275,-5.2774,-5.2819,-5.2845,-5.2822,-5.2927,-5.2936,-5.2945,-5.2977,-5.2989,-5.2845,-5.2845,-5.2845,-5.2845,0,-5.1749,-5.1843,-5.1901,-5.2028,-5.2097,-5.2188,-5.2267,-5.2329,-5.2364,-5.2422,-5.254,-5.2629,-5.2739,-5.2774,-5.2809,-5.2914,-5.2908,-5.2913,-5.2898,-5.2954,-5.2985,-5.2998,-5.2845,-5.2845,-5.2845,-5.2845,0,0,-5.1795,-5.1959,-5.1979,-5.2038,-5.2161,-5.2235,-5.2328,-5.2436,-5.2487,-5.2578,-5.2656,-5.279,-5.2797,-5.2861,-5.2904,-5.296,-5.303,-5.296,-5.2963,-5.2968,-5.315,-5.3143,-5.3157,-5.3046,-5.3049,-5.3051,-5.3141,0,-5.1877,-5.2045,-5.2108,-5.2245,-5.2332,-5.238,-5.2461,-5.2545,-5.2602,-5.2684,-5.2748,-5.2841,-5.2843,-5.2882,-5.294,-5.3009,-5.3067,-5.3004,-5.3119,-5.3122,-5.3089,-5.3173,-5.3167,-5.3247,-5.3154,-5.3156,-5.3158,0,-5.1994,-5.2086,-5.2231,-5.2345,-5.2384,-5.2455,-5.256,-5.2638,-5.2735,-5.2773,-5.2846,-5.2886,-5.2984,-5.2965,-5.3102,-5.3057,-5.3108,-5.3149,-5.3154,-5.3165,-5.3141,-5.3184,-5.3274,-5.3285,-5.3178,-5.3176,-5.3175,0,-5.2011,-5.2171,-5.2279,-5.2328,-5.2463,-5.2512,-5.257,-5.2665,-5.2727,-5.2818,-5.2859,-5.296,-5.3015,-5.3093,-5.3159,-5.314,-5.3289,-5.3276,-5.3322,-5.332,-5.3349,-5.3346,-5.3446,-5.3386,-5.3385,-5.3385,-5.3385,0,-5.2094,-5.218,-5.2289,-5.2355,-5.2454,-5.2526,-5.2621,-5.2683,-5.2767,-5.2845,-5.2894,-5.2966,-5.305,-5.3133,-5.3186,-5.329,-5.3315,-5.3348,-5.336,-5.3342,-5.3338,-5.3375,-5.337,-5.3389,-5.3388,-5.3387,-5.3387,0,-5.2128,-5.2205,-5.2325,-5.2444,-5.2476,-5.2543,-5.2644,-5.271,-5.2771,-5.2869,-5.2897,-5.2991,-5.3092,-5.3167,-5.3297,-5.3332,-5.3442,-5.3456,-5.341,-5.3416,-5.3457,-5.3451,-5.3582,-5.3602,-5.353,-5.3531,-5.3531,0,-5.2175,-5.2243,-5.2369,-5.2426,-5.2484,-5.2574,-5.2637,-5.2712,-5.2775,-5.2891,-5.2943,-5.3047,-5.3134,-5.3293,-5.3372,-5.3472,-5.3488,-5.3527,-5.3503,-5.3482,-5.3486,-5.348,-5.3487,-5.3529,-5.3529,-5.353,-5.353,0,-5.2249,-5.2284,-5.2373,-5.2476,-5.2551,-5.2635,-5.2721,-5.2764,-5.2853,-5.2922,-5.3026,-5.3094,-5.3228,-5.333,-5.3438,-5.3498,-5.3528,-5.3538,-5.3553,-5.3534,-5.3504,-5.3519,-5.3416,-5.3534,-5.3533,-5.3533,-5.3533,-5.3533,-5.229,-5.2353,-5.2451,-5.255,-5.2622,-5.2701,-5.2768,-5.2838,-5.2926,-5.3041,-5.308,-5.3187,-5.3282,-5.3431,-5.3492,-5.3576,-5.3576,-5.3598,-5.3604,-5.3608,-5.3606,-5.3492,-5.3596,-5.3596,-5.3596,-5.3596,-5.3597,0,-5.2365,-5.2432,-5.2521,-5.264,-5.2717,-5.2741,-5.2837,-5.29,-5.2993,-5.3081,-5.3166,-5.3285,-5.3385,-5.3474,-5.3577,-5.3628,-5.3645,-5.3653,-5.3648,-5.3661,-5.3601,-5.3576,-5.3637,-5.3637,-5.3637,-5.3637,-5.3637,-5.3637,-5.2413,-5.252,-5.2567,-5.271,-5.2776,-5.2881,-5.2934,-5.3007,-5.3077,-5.3208,-5.3292,-5.3349,-5.3437,-5.3548,-5.364,-5.3664,-5.3699,-5.3703,-5.3729,-5.3671,-5.3666,-5.3661,-5.3638,-5.371,-5.3711,-5.3783,-5.3783,-5.3784]},{"header":{"parameterUnit":"m.s-1","parameterCategory":1,"la1":30.2991,"la2":30.254,"lo1":-89.0895,"lo2":-89.0444,"dy":0.0017,"dx":0.0017,"nx":28,"ny":28,"refTime":"2025-04-04T09:00:00:Z","depth":0,"parameterNumber":3,"parameterNumberName":"V-component_of_WINDS"},"data":[0,0,0,0,0,0,0,0,0,0,0,0,0,0,0,0,0,0,0,0,0,0,0,0,0,0,0,0,0,0,0,0,0,0,0,0,0,0,0,0,0,0,0,0,0,0,0,0,0,0,0,0,0,0,0,0,0,0,5.6603,5.6605,0,5.6744,5.6746,5.6747,5.6773,5.6772,5.6771,5.677,5.6916,5.692,5.6925,0,0,0,0,0,0,0,0,0,0,0,0,0,5.6362,5.6367,5.6603,5.6605,5.6607,5.6744,5.6746,5.6748,5.6773,5.6772,5.6771,5.6769,5.6914,5.692,5.6926,0,0,0,0,0,0,0,0,0,0,0,0,0,5.6481,5.6368,5.6603,5.6636,5.6641,5.6743,5.6746,5.6748,5.6774,5.6772,5.677,5.6769,5.6912,5.6919,5.6927,5.7007,0,0,5.6949,5.6953,0,0,0,0,0,0,0,0,5.6475,5.649,5.663,5.6634,5.6639,5.6739,5.6714,5.6835,5.6774,5.6723,5.677,5.6768,5.6858,5.687,5.69,5.7014,5.702,5.695,5.6955,5.6958,5.696,0,0,0,0,0,0,0,5.6466,5.6484,5.6659,5.6632,5.6637,5.6646,5.6661,5.6737,5.6799,5.6727,5.673,5.6746,5.6861,5.6893,5.6904,5.7022,5.695,5.6956,5.6961,5.6964,5.7213,5.7215,0,0,0,0,0,0,5.6452,5.6477,5.6655,5.6663,5.6551,5.6651,5.6668,5.6709,5.6798,5.681,5.6747,5.6747,5.6881,5.6895,5.6909,5.7012,5.6958,5.6965,5.6969,5.7211,5.7214,5.7216,0,0,0,0,0,0,5.6446,5.6467,5.6649,5.6571,5.6595,5.6657,5.6703,5.6713,5.6745,5.6813,5.6824,5.6769,5.6881,5.6899,5.6983,5.7017,5.6968,5.6975,5.7208,5.7212,5.7215,5.7216,0,0,0,0,0,0,5.6439,5.6465,5.6495,5.6571,5.6599,5.6719,5.6705,5.6717,5.6757,5.6758,5.6836,5.6847,5.6881,5.6972,5.6991,5.7026,5.6981,5.7206,5.721,5.7214,5.7213,5.7218,5.7223,0,0,0,0,0,5.6431,5.6489,5.6496,5.6517,5.6637,5.6721,5.6737,5.6773,5.676,5.6792,5.6836,5.6845,5.701,5.6981,5.7002,5.704,5.7204,5.7209,5.7213,5.721,5.7217,5.7223,0,0,0,0,0,0,5.6415,5.6499,5.6508,5.6593,5.665,5.6725,5.6765,5.6779,5.684,5.6838,5.6882,5.6899,5.6982,5.702,5.6985,5.7125,5.7106,5.7116,5.7097,5.7104,5.7109,5.7099,5.6987,0,0,0,0,0,5.6421,5.648,5.6552,5.662,5.6648,5.6702,5.674,5.6763,5.6824,5.6848,5.6898,5.6958,5.7024,5.7066,5.713,5.7219,5.7238,5.7256,5.7261,5.7265,5.7273,5.7326,5.7336,5.7232,5.7232,5.7232,0,0,5.6434,5.6488,5.6523,5.6618,5.6665,5.6728,5.6722,5.6788,5.6836,5.6858,5.6942,5.6981,5.7051,5.7138,5.718,5.7172,5.7306,5.7271,5.7274,5.728,5.7332,5.7342,5.7351,5.7235,5.7235,5.7234,0,0,5.6492,5.6537,5.66,5.6648,5.6719,5.6755,5.677,5.6845,5.6872,5.6956,5.6976,5.7034,5.7145,5.7195,5.7235,5.7315,5.7327,5.7335,5.7362,5.7414,5.7422,5.743,5.746,5.7471,5.7343,5.7343,5.7343,0,5.65,5.6593,5.6631,5.6697,5.674,5.6764,5.683,5.6874,5.6963,5.6993,5.6983,5.7126,5.7174,5.7276,5.7296,5.7327,5.7347,5.7326,5.7418,5.7426,5.7433,5.7463,5.7474,5.7343,5.7343,5.7343,5.7343,0,5.6602,5.6667,5.671,5.6795,5.6842,5.6908,5.6957,5.7001,5.7022,5.706,5.7148,5.7207,5.7285,5.7311,5.7331,5.7416,5.741,5.7409,5.7391,5.7443,5.7472,5.7484,5.7344,5.7344,5.7344,5.7344,0,0,5.665,5.6758,5.6773,5.6813,5.6895,5.6947,5.7016,5.7092,5.713,5.7191,5.7251,5.7347,5.7347,5.7393,5.7419,5.7464,5.7527,5.7458,5.746,5.747,5.7629,5.763,5.7642,5.7536,5.7538,5.754,5.7623,0,5.6718,5.6839,5.6877,5.6979,5.7042,5.7068,5.7128,5.7186,5.7224,5.7284,5.7327,5.7395,5.7389,5.7417,5.7463,5.751,5.756,5.7504,5.7594,5.7597,5.7576,5.7657,5.7658,5.7733,5.7635,5.7637,5.7638,0,5.6813,5.6877,5.6985,5.7062,5.709,5.7143,5.7218,5.7274,5.7342,5.7367,5.7419,5.7443,5.7518,5.7497,5.7602,5.7563,5.7603,5.7632,5.7636,5.7646,5.762,5.7671,5.7758,5.777,5.7656,5.7654,5.7653,0,5.684,5.6953,5.7033,5.7067,5.7158,5.7195,5.7235,5.7301,5.7346,5.7412,5.7442,5.7516,5.7557,5.7615,5.7659,5.7639,5.7762,5.7743,5.7786,5.7785,5.7811,5.7809,5.7907,5.7834,5.7834,5.7834,5.7834,0,5.6913,5.6979,5.7047,5.7096,5.7172,5.7216,5.7291,5.7332,5.7391,5.7451,5.7478,5.7534,5.7589,5.7653,5.7688,5.7771,5.7789,5.7813,5.7822,5.7811,5.7808,5.7838,5.7834,5.7837,5.7836,5.7836,5.7835,0,5.6956,5.7004,5.7093,5.7173,5.7195,5.7247,5.7317,5.7367,5.7408,5.7483,5.7504,5.7567,5.7645,5.7694,5.7792,5.7816,5.7908,5.7915,5.7885,5.789,5.7931,5.7927,5.8052,5.8072,5.7985,5.7985,5.7986,0,5.6999,5.705,5.7136,5.7178,5.7218,5.7285,5.7331,5.7378,5.7426,5.7509,5.755,5.7629,5.7694,5.7816,5.7873,5.7949,5.7958,5.7997,5.797,5.7959,5.7961,5.7958,5.7965,5.8001,5.8002,5.8003,5.8003,0,5.7072,5.7094,5.7158,5.7233,5.7288,5.7349,5.741,5.7443,5.7501,5.7553,5.7632,5.7683,5.7785,5.7863,5.7945,5.7989,5.8007,5.8012,5.8026,5.8016,5.7997,5.801,5.7899,5.8008,5.8008,5.8007,5.8007,5.8007,5.7118,5.7166,5.7234,5.7307,5.7358,5.7415,5.7468,5.7515,5.7582,5.7667,5.7691,5.7775,5.7845,5.7957,5.8002,5.807,5.8065,5.8085,5.8091,5.8095,5.8097,5.7986,5.8084,5.8084,5.8084,5.8084,5.8084,0,5.7193,5.7239,5.7306,5.7391,5.7449,5.746,5.753,5.7578,5.7651,5.7714,5.7779,5.7872,5.7949,5.8013,5.8093,5.8135,5.8146,5.8155,5.8153,5.8163,5.8095,5.8075,5.8145,5.8145,5.8145,5.8145,5.8145,5.8145,5.724,5.7322,5.7353,5.7463,5.7509,5.7591,5.763,5.7684,5.7735,5.7837,5.7902,5.7943,5.8008,5.8094,5.8167,5.8183,5.8213,5.822,5.8239,5.8174,5.8168,5.8161,5.8143,5.8226,5.8226,5.8302,5.8303,5.8303]}]]